Location: Jackson Park
(37.2862°N, 79.9123°W)
Time: 15:24:23
(UTC+00:00)

Vanguard 1 Rocket - Pass Details

Date: 19 May 2026
Orbit: 656 x 4211 km, 34.3° (Epoch: 8 June)

Event Time Altitude Azimuth Distance (km) Brightness Sun altitude
Rises 04:05:19 0° 275° (W) 7,280 12.3 -30.6°
Reaches altitude 10° 04:12:55 10° 258° (WSW) 6,808 11.9 -31.0°
Maximum altitude 04:25:09 17° 227° (SW) 6,713 11.5 -31.7°
Enters shadow 04:31:11 15° 211° (SSW) 6,922 11.4 -32.0°
Drops below altitude 10° 04:38:32 10° 195° (SSW) 7,342 - -32.3°
Sets 04:47:50 0° 177° (S) 8,053 - -32.6°
